User: anonymous   Login
Location: Unspecified
(0.0000°N, 0.0000°E)
Time: 05:21:14
(UTC+00:00)
Language:

STARLINK-3071 - Orbit

View from above orbital plane
View from above orbital plane
View from above satellite
View from above satellite

Ground track
Ground track

The orbit is defined by the following mean orbital elements,

1 49147U          26145.17032772 +.00000000 +00000-0 +23524-3 0 00004
2 49147  70.0004  61.6258 0002866 267.1053  92.9778 14.98356474    05
Epoch (UTC): 25 May 2026 04:05:16
Eccentricity: 0.0002866
inclination: 70.0004°
perigee height: 570 km
apogee height: 574 km
right ascension of ascending node: 61.6258°
argument of perigee: 267.1053°
revolutions per day: 14.98356474
mean anomaly at epoch: 92.9778°

The dashed part of the orbit path shows where the satellite is in the earth's shadow,  

DLR